GW2585 Weather Reports


time (UTC)temp
C
wind
direction
speed
KPH
gust
KPH
rain 1hr
cm
rain 24hr
cm
rain mn
cm
humidity
%
barometer
mb
20260510045024 16 322 1.6 1.6 0.79 0.36 0.36 91 1015.1
20260510044521 16 14 6.4 11.3 0.61 0.28 0.28 90 1015.5
20260510044019 17 105 3.2 4.8 0.71 0.23 0.23 87 1015.6
20260510043514 17 124 0.0 1.6 0.71 0.18 0.18 83 1014.9
20260510043010 18 211 3.2 4.8 0.48 0.10 0.10 77 1013.8
20260510042504 18 314 3.2 4.8 0.36 0.05 0.05 75 1013.3
20260510041959 20 113 0.0 0.0 0.18 0.03 0.03 74 1012.7
20260510041456 20 132 0.0 0.0 0.18 0.03 0.03 68 1012.5
20260510040954 20 146 1.6 1.6 0.00 0.00 0.00 63 1012.6
20260510040450 21 119 0.0 1.6 0.00 0.00 0.00 61 1012.5
20260510035946 21 148 1.6 1.6 0.00 0.00 0.00 59 1012.0
20260510035443 21 132 0.0 0.0 0.00 0.00 0.00 56 1011.6
20260510034942 22 120 0.0 0.0 0.00 0.00 0.00 56 1011.3
20260510034442 22 291 1.6 1.6 0.00 0.00 0.00 51 1011.0
20260510033937 22 326 1.6 1.6 0.00 0.00 0.00 48 1010.8
20260510033433 22 149 0.0 1.6 0.00 0.00 0.00 49 1010.1
20260510032930 22 121 0.0 0.0 0.00 0.00 0.00 49 1010.0
20260510032427 22 101 0.0 0.0 0.00 0.00 0.00 49 1010.0
20260510031922 22 139 0.0 1.6 0.00 0.00 0.00 49 1010.1
20260510031418 22 128 0.0 0.0 0.00 0.00 0.00 49 1009.7
20260510030914 22 140 1.6 1.6 0.00 0.00 0.00 49 1009.7
20260510030410 22 122 1.6 1.6 0.00 0.00 0.00 49 1009.6
20260510025908 22 116 1.6 1.6 0.00 0.00 0.00 49 1009.3
20260510025405 22 133 0.0 0.0 0.00 0.00 0.00 49 1009.5
20260510024902 22 92 0.0 0.0 0.00 0.00 0.00 48 1009.3
20260510024358 22 119 0.0 0.0 0.00 0.00 0.00 48 1009.4
20260510023854 22 110 0.0 0.0 0.00 0.00 0.00 48 1009.2
20260510023351 22 117 0.0 0.0 0.00 0.00 0.00 47 1008.9
20260510022848 22 149 0.0 0.0 0.00 0.00 0.00 47 1008.9
20260510022347 22 124 0.0 0.0 0.00 0.00 0.00 46 1008.7
20260510021846 22 126 0.0 1.6 0.00 0.00 0.00 45 1008.9
20260510021345 22 123 0.0 0.0 0.00 0.00 0.00 45 1008.9
20260510020840 23 121 0.0 0.0 0.00 0.00 0.00 44 1008.7
20260510020335 23 105 0.0 0.0 0.00 0.00 0.00 44 1008.3
20260510015831 23 132 1.6 1.6 0.00 0.00 0.00 43 1008.0
20260510015327 23 121 0.0 0.0 0.00 0.00 0.00 42 1007.9
20260510014822 23 119 0.0 1.6 0.00 0.00 0.00 42 1007.6
20260510014320 23 121 0.0 0.0 0.00 0.00 0.00 42 1007.7
20260510013816 23 126 0.0 0.0 0.00 0.00 0.00 41 1007.4
20260510013312 23 130 0.0 1.6 0.00 0.00 0.00 42 1007.3
20260510012807 23 124 0.0 0.0 0.00 0.00 0.00 42 1007.2
20260510012307 23 131 0.0 0.0 0.00 0.00 0.00 41 1007.1
20260510011801 24 88 0.0 0.0 0.00 0.00 0.00 41 1007.2
20260510011257 25 105 0.0 0.0 0.00 0.00 0.00 40 1007.2
20260510010754 25 15 1.6 3.2 0.00 0.00 0.00 39 1007.1
20260510010250 25 112 0.0 0.0 0.00 0.00 0.00 39 1007.2
20260510005747 25 90 1.6 1.6 0.00 0.00 0.00 38 1007.0
20260510005243 25 128 0.0 0.0 0.00 0.00 0.00 37 1007.0
20260510004742 26 107 0.0 0.0 0.00 0.00 0.00 37 1007.0
20260510004239 26 102 0.0 0.0 0.00 0.00 0.00 35 1006.9
20260510003736 26 125 0.0 0.0 0.00 0.00 0.00 36 1006.7
20260510003232 27 119 1.6 3.2 0.00 0.00 0.00 34 1007.0
20260510002731 27 50 0.0 1.6 0.00 0.00 0.00 35 1007.1
20260510002229 27 140 3.2 3.2 0.00 0.00 0.00 33 1007.1
20260510001725 28 237 1.6 3.2 0.00 0.00 0.00 32 1006.9
20260510001224 28 118 1.6 1.6 0.00 0.00 0.00 32 1007.0
20260510000720 28 167 1.6 3.2 0.00 0.00 0.00 33 1006.9
20260510000218 28 220 3.2 4.8 0.00 0.00 0.00 33 1006.9
20260509235714 28 86 1.6 3.2 0.00 0.00 0.00 32 1006.7
20260509235210 28 158 1.6 3.2 0.00 0.00 0.00 32 1006.7
20260509234706 29 168 1.6 3.2 0.00 0.00 0.00 32 1006.7
20260509234204 30 352 0.0 1.6 0.00 0.00 0.00 32 1006.7
20260509233702 30 161 1.6 1.6 0.00 0.00 0.00 31 1006.9
20260509233159 29 145 0.0 0.0 0.00 0.00 0.00 31 1006.6
20260509232655 29 109 1.6 1.6 0.00 0.00 0.00 31 1006.9
20260509232152 29 142 1.6 1.6 0.00 0.00 0.00 32 1006.6
20260509231649 29 53 3.2 6.4 0.00 0.00 0.00 31 1006.9
20260509231146 28 314 1.6 1.6 0.00 0.00 0.00 31 1007.1
20260509230643 28 130 3.2 4.8 0.00 0.00 0.00 32 1007.3
20260509230140 30 88 0.0 0.0 0.00 0.00 0.00 33 1007.0
20260509225635 30 165 1.6 3.2 0.00 0.00 0.00 31 1007.1
20260509225131 30 136 0.0 1.6 0.00 0.00 0.00 33 1006.6
20260509224627 30 136 0.0 0.0 0.00 0.00 0.00 35 1006.9
20260509224124 30 126 0.0 0.0 0.00 0.00 0.00 33 1007.1
20260509223621 31 104 1.6 1.6 0.00 0.00 0.00 31 1007.3
20260509223118 31 157 1.6 1.6 0.00 0.00 0.00 31 1007.2
20260509222614 30 122 0.0 0.0 0.00 0.00 0.00 31 1007.2
20260509222110 30 153 0.0 1.6 0.00 0.00 0.00 31 1006.9
20260509221606 30 259 3.2 4.8 0.00 0.00 0.00 31 1007.0
20260509221102 31 156 1.6 3.2 0.00 0.00 0.00 30 1007.0
20260509220558 31 167 4.8 6.4 0.00 0.00 0.00 29 1007.1
20260509220055 31 146 0.0 1.6 0.00 0.00 0.00 31 1007.0
20260509215550 31 127 1.6 3.2 0.00 0.00 0.00 28 1007.3
20260509215048 31 136 0.0 0.0 0.00 0.00 0.00 30 1007.1
20260509214545 31 146 0.0 0.0 0.00 0.00 0.00 29 1007.2
20260509214042 31 147 3.2 3.2 0.00 0.00 0.00 28 1007.2
20260509213538 31 124 1.6 3.2 0.00 0.00 0.00 33 1007.7
20260509213035 31 149 0.0 1.6 0.00 0.00 0.00 30 1007.3
20260509212532 31 108 1.6 1.6 0.00 0.00 0.00 30 1007.4
20260509212029 31 126 0.0 0.0 0.00 0.00 0.00 32 1007.5
20260509211524 31 132 0.0 0.0 0.00 0.00 0.00 28 1007.5
20260509211021 31 217 3.2 3.2 0.00 0.00 0.00 28 1007.7
20260509210518 31 144 1.6 3.2 0.00 0.00 0.00 28 1007.7
20260509210015 31 124 0.0 0.0 0.00 0.00 0.00 33 1007.7
20260509205508 31 60 3.2 3.2 0.00 0.00 0.00 32 1007.9
20260509205004 31 125 1.6 1.6 0.00 0.00 0.00 31 1007.9
20260509204501 31 140 0.0 0.0 0.00 0.00 0.00 31 1008.1
20260509203957 31 143 3.2 3.2 0.00 0.00 0.00 31 1008.0
20260509203453 31 140 3.2 3.2 0.00 0.00 0.00 31 1007.9
20260509202951 30 138 1.6 1.6 0.00 0.00 0.00 31 1008.1
20260509202447 30 77 3.2 3.2 0.00 0.00 0.00 31 1008.0
20260509201942 31 127 1.6 3.2 0.00 0.00 0.00 29 1008.3
20260509201437 31 104 1.6 1.6 0.00 0.00 0.00 28 1008.5
20260509200935 30 187 1.6 1.6 0.00 0.00 0.00 30 1008.4
20260509200434 30 357 0.0 1.6 0.00 0.00 0.00 30 1008.3
20260509195931 30 142 1.6 3.2 0.00 0.00 0.00 31 1008.6
20260509195427 30 130 8.0 12.9 0.00 0.00 0.00 30 1008.8
20260509194926 30 20 1.6 3.2 0.00 0.00 0.00 32 1008.8
20260509194422 30 131 0.0 0.0 0.00 0.00 0.00 29 1008.7
20260509193920 30 117 0.0 0.0 0.00 0.00 0.00 33 1009.0
20260509193419 30 117 0.0 0.0 0.00 0.00 0.00 28 1009.0
20260509192916 30 182 1.6 1.6 0.00 0.00 0.00 28 1008.7
20260509192412 30 132 1.6 1.6 0.00 0.00 0.00 27 1009.0
20260509191907 30 127 0.0 1.6 0.00 0.00 0.00 32 1008.9
20260509191403 30 155 1.6 3.2 0.00 0.00 0.00 33 1008.9
20260509190859 30 145 3.2 3.2 0.00 0.00 0.00 35 1009.0
20260509190356 30 123 0.0 1.6 0.00 0.00 0.00 36 1009.0
20260509185854 30 196 1.6 3.2 0.00 0.00 0.00 34 1009.0
20260509185350 29 117 0.0 0.0 0.00 0.00 0.00 30 1008.9
20260509184847 30 152 0.0 1.6 0.00 0.00 0.00 34 1009.3
20260509184344 30 111 1.6 3.2 0.00 0.00 0.00 32 1009.3
20260509183841 29 111 1.6 1.6 0.00 0.00 0.00 31 1009.2
20260509183336 30 119 0.0 1.6 0.00 0.00 0.00 34 1009.3
20260509182832 30 152 1.6 1.6 0.00 0.00 0.00 31 1009.6
20260509182330 30 70 1.6 3.2 0.00 0.00 0.00 30 1009.7
20260509181827 30 77 1.6 1.6 0.00 0.00 0.00 34 1009.5
20260509181324 30 125 1.6 1.6 0.00 0.00 0.00 36 1009.8
20260509180821 29 111 0.0 1.6 0.00 0.00 0.00 36 1009.6
20260509180317 30 14 3.2 3.2 0.00 0.00 0.00 32 1010.0
20260509175814 30 138 0.0 0.0 0.00 0.00 0.00 33 1009.9
20260509175311 29 117 1.6 3.2 0.00 0.00 0.00 38 1009.9
20260509174807 29 72 0.0 0.0 0.00 0.00 0.00 37 1010.0
20260509174302 28 62 1.6 1.6 0.00 0.00 0.00 35 1009.9
20260509173758 28 130 1.6 3.2 0.00 0.00 0.00 38 1009.9
20260509173254 28 94 1.6 1.6 0.00 0.00 0.00 40 1010.0
20260509172750 27 117 0.0 0.0 0.00 0.00 0.00 38 1010.1
20260509172247 27 135 0.0 1.6 0.00 0.00 0.00 37 1010.1
20260509171742 27 117 1.6 1.6 0.00 0.00 0.00 37 1010.0
20260509171239 27 111 0.0 0.0 0.00 0.00 0.00 40 1010.0
20260509170736 27 124 0.0 1.6 0.00 0.00 0.00 39 1010.4
20260509170231 27 139 0.0 1.6 0.00 0.00 0.00 40 1010.3
20260509165730 28 97 0.0 1.6 0.00 0.00 0.00 37 1010.3
20260509165225 27 122 0.0 1.6 0.00 0.00 0.00 40 1010.5
20260509164722 29 138 3.2 3.2 0.00 0.00 0.00 36 1010.4
20260509164217 28 75 1.6 3.2 0.00 0.00 0.00 40 1010.8
20260509163715 28 114 1.6 1.6 0.00 0.00 0.00 42 1010.8
20260509163211 28 111 0.0 1.6 0.00 0.00 0.00 36 1010.8
20260509162709 28 117 0.0 1.6 0.00 0.00 0.00 39 1010.8
20260509162204 27 151 3.2 4.8 0.00 0.00 0.00 40 1010.5
20260509161700 27 103 0.0 1.6 0.00 0.00 0.00 53 1010.7
20260509161156 27 82 0.0 1.6 0.00 0.00 0.00 48 1010.7
20260509160652 27 123 1.6 1.6 0.00 0.00 0.00 53 1010.8
20260509160148 27 126 1.6 1.6 0.00 0.00 0.00 50 1010.7
20260509155644 27 117 0.0 0.0 0.00 0.00 0.00 48 1010.5
20260509155140 27 117 1.6 1.6 0.00 0.00 0.00 50 1010.5
20260509154636 27 160 0.0 0.0 0.00 0.00 0.00 48 1010.5
20260509154133 26 94 0.0 0.0 0.00 0.00 0.00 50 1010.4
20260509153630 26 130 0.0 1.6 0.00 0.00 0.00 52 1010.2
20260509153127 26 101 0.0 0.0 0.00 0.00 0.00 57 1010.2
20260509152623 26 109 0.0 1.6 0.00 0.00 0.00 57 1010.3
20260509152120 26 133 0.0 0.0 0.00 0.00 0.00 62 1010.0
20260509151616 25 115 0.0 0.0 0.00 0.00 0.00 62 1010.1
20260509151114 25 140 0.0 1.6 0.00 0.00 0.00 61 1010.2
20260509150612 25 109 0.0 1.6 0.00 0.00 0.00 64 1010.2
20260509150110 25 99 0.0 0.0 0.00 0.00 0.00 65 1010.3
20260509145605 25 117 0.0 0.0 0.00 0.00 0.00 64 1010.2
20260509145101 24 123 1.6 1.6 0.00 0.00 0.00 66 1010.0
20260509144558 23 123 0.0 0.0 0.00 0.00 0.00 70 1010.0
20260509144055 23 116 0.0 0.0 0.00 0.00 0.00 73 1010.1
20260509143552 21 83 0.0 0.0 0.00 0.00 0.00 77 1010.0
20260509143050 21 124 0.0 0.0 0.00 0.00 0.00 80 1010.1
20260509142545 20 92 0.0 0.0 0.00 0.00 0.00 86 1010.2
20260509142041 19 42 0.0 0.0 0.00 0.00 0.00 92 1009.9
20260509141537 18 122 0.0 0.0 0.00 0.00 0.00 94 1009.8
20260509141034 18 116 0.0 0.0 0.00 0.00 0.00 99 1010.1
20260509140531 17 107 0.0 0.0 0.00 0.00 0.00 99 1010.0
20260509140029 17 107 0.0 0.0 0.00 0.00 0.00 99 1010.0
20260509135526 16 107 0.0 0.0 0.00 0.00 0.00 99 1010.2
20260509135023 16 92 0.0 0.0 0.00 0.00 0.00 99 1010.1
20260509134520 16 92 0.0 0.0 0.00 0.00 0.00 99 1009.8
20260509134018 15 92 0.0 0.0 0.00 0.00 0.00 99 1010.0
20260509133514 15 92 0.0 0.0 0.00 0.00 0.00 99 1010.2
20260509133012 15 75 0.0 0.0 0.00 0.00 0.00 99 1010.2
20260509132511 14 75 0.0 0.0 0.00 0.00 0.00 99 1010.2
20260509132008 13 74 0.0 0.0 0.00 0.00 0.00 99 1010.1
20260509131504 13 74 0.0 0.0 0.00 0.00 0.00 99 1010.1
20260509131001 13 74 0.0 0.0 0.00 0.00 0.00 99 1010.1
20260509130456 13 74 0.0 0.0 0.00 0.00 0.00 99 1010.0
20260509125954 12 74 0.0 0.0 0.00 0.00 0.00 99 1009.9
20260509125450 12 74 0.0 0.0 0.00 0.00 0.00 99 1009.8
20260509124946 12 74 0.0 0.0 0.00 0.00 0.00 99 1009.8
20260509124443 11 74 0.0 0.0 0.00 0.00 0.00 99 1009.7
20260509123940 11 74 0.0 0.0 0.00 0.00 0.00 99 1009.8
20260509123438 11 74 0.0 0.0 0.00 0.00 0.00 99 1009.6
20260509122934 11 73 0.0 0.0 0.00 0.00 0.00 99 1009.6
20260509122431 10 95 0.0 0.0 0.00 0.00 0.00 99 1009.4
20260509121927 10 115 0.0 0.0 0.00 0.00 0.00 99 1009.5
20260509121424 10 116 0.0 0.0 0.00 0.00 0.00 99 1009.4
20260509120923 10 116 0.0 0.0 0.00 0.00 0.00 99 1009.2
20260509120420 10 107 0.0 0.0 0.00 0.00 0.00 99 1009.1
20260509115918 10 107 0.0 0.0 0.00 0.00 0.00 99 1009.4
20260509115415 10 107 0.0 0.0 0.00 0.00 0.00 99 1009.3
20260509114912 10 107 0.0 0.0 0.00 0.00 0.00 99 1009.2
20260509114411 11 107 0.0 0.0 0.00 0.00 0.00 99 1009.3
20260509113910 10 107 0.0 0.0 0.00 0.00 0.00 99 1009.3
20260509113407 10 108 0.0 0.0 0.00 0.00 0.00 99 1009.2
20260509112903 10 91 0.0 0.0 0.00 0.00 0.00 99 1009.0
20260509112401 10 91 0.0 0.0 0.00 0.00 0.00 99 1008.9
20260509111858 10 91 0.0 0.0 0.00 0.00 0.00 99 1009.0
20260509111354 10 91 0.0 0.0 0.00 0.00 0.00 99 1009.1
20260509110852 10 91 0.0 0.0 0.00 0.00 0.00 99 1009.1
20260509110348 10 91 0.0 0.0 0.00 0.00 0.00 99 1008.9
20260509105847 10 91 0.0 0.0 0.00 0.00 0.00 99 1008.9
20260509105345 10 91 0.0 0.0 0.00 0.00 0.00 99 1009.0
20260509104841 10 91 0.0 0.0 0.00 0.00 0.00 99 1009.0
20260509104337 10 91 0.0 0.0 0.00 0.00 0.00 99 1009.1
20260509103835 10 91 0.0 0.0 0.00 0.00 0.00 99 1009.1
20260509103332 10 91 0.0 0.0 0.00 0.00 0.00 99 1009.4
20260509102831 10 91 0.0 0.0 0.00 0.00 0.00 99 1009.3
20260509102328 10 91 0.0 0.0 0.00 0.00 0.00 99 1008.8
20260509101824 11 91 0.0 0.0 0.00 0.00 0.00 99 1009.3
20260509101320 11 91 0.0 0.0 0.00 0.00 0.00 99 1009.4
20260509100818 11 91 0.0 0.0 0.00 0.00 0.00 99 1009.2
20260509100315 11 91 0.0 0.0 0.00 0.00 0.00 99 1009.3
20260509095811 11 91 0.0 0.0 0.00 0.00 0.00 99 1009.4
20260509095309 11 91 0.0 0.0 0.00 0.00 0.00 99 1009.2
20260509094806 11 91 0.0 0.0 0.00 0.00 0.00 99 1009.3
20260509094302 11 91 0.0 0.0 0.00 0.00 0.00 99 1009.1
20260509093800 11 90 0.0 0.0 0.00 0.00 0.00 99 1009.4
20260509093257 11 90 0.0 0.0 0.00 0.00 0.00 99 1009.5
20260509092756 11 90 0.0 0.0 0.00 0.00 0.00 99 1009.5
20260509092253 11 90 0.0 0.0 0.00 0.00 0.00 99 1009.3
20260509091751 11 90 0.0 0.0 0.00 0.00 0.00 99 1009.4
20260509091247 11 90 0.0 0.0 0.00 0.00 0.00 99 1009.7
20260509090745 11 90 0.0 0.0 0.00 0.00 0.00 99 1009.5
20260509090242 11 90 0.0 0.0 0.00 0.00 0.00 99 1009.7
20260509085740 11 90 0.0 0.0 0.00 0.00 0.00 99 1009.5
20260509085237 11 90 0.0 0.0 0.00 0.00 0.00 99 1009.5
20260509084733 11 90 0.0 0.0 0.00 0.00 0.00 99 1009.4
20260509084230 11 90 0.0 0.0 0.00 0.00 0.00 99 1009.7
20260509083728 11 90 0.0 0.0 0.00 0.00 0.00 99 1009.9
20260509083225 11 90 0.0 0.0 0.00 0.00 0.00 99 1009.9
20260509082721 12 90 0.0 0.0 0.00 0.00 0.00 99 1009.5
20260509082218 12 90 0.0 0.0 0.00 0.00 0.00 99 1009.8
20260509081714 12 90 0.0 0.0 0.00 0.00 0.00 99 1009.8
20260509081212 12 91 0.0 0.0 0.00 0.00 0.00 99 1009.6
20260509080710 12 90 0.0 0.0 0.00 0.00 0.00 99 1009.9
20260509080208 12 90 0.0 0.0 0.00 0.00 0.00 99 1009.8
20260509075706 12 90 0.0 0.0 0.00 0.00 0.00 99 1010.0
20260509075203 12 90 0.0 0.0 0.00 0.00 0.00 99 1009.9
20260509074700 12 91 0.0 0.0 0.00 0.00 0.00 98 1010.2
20260509074156 12 90 0.0 0.0 0.00 0.00 0.00 98 1010.1
20260509073653 12 90 0.0 0.0 0.00 0.00 0.00 98 1010.0
20260509073149 13 91 0.0 0.0 0.00 0.00 0.00 98 1009.9
20260509072646 13 52 0.0 0.0 0.00 0.00 0.00 98 1010.2
20260509072143 13 80 0.0 0.0 0.00 0.00 0.00 98 1010.2
20260509071640 13 80 0.0 0.0 0.00 0.00 0.00 98 1010.1
20260509071137 13 80 0.0 0.0 0.00 0.00 0.00 98 1010.0
20260509070634 13 101 0.0 0.0 0.00 0.00 0.00 98 1010.0
20260509070130 13 101 0.0 0.0 0.00 0.00 0.00 98 1010.0
20260509065626 13 81 0.0 0.0 0.00 0.00 0.00 98 1009.8
20260509065123 13 131 0.0 0.0 0.00 0.00 0.00 98 1010.0
20260509064620 13 131 0.0 0.0 0.00 0.00 0.00 98 1009.9
20260509064118 13 131 0.0 0.0 0.00 0.00 0.00 98 1009.8
20260509063614 13 131 0.0 0.0 0.00 0.00 0.00 98 1009.9
20260509063111 13 131 0.0 0.0 0.00 0.00 0.00 98 1009.9
20260509062608 13 131 0.0 0.0 0.00 0.00 0.00 98 1009.7
20260509062105 13 131 0.0 0.0 0.00 0.00 0.00 98 1009.8
20260509061602 13 131 0.0 0.0 0.00 0.00 0.00 98 1010.0
20260509061059 13 131 0.0 0.0 0.00 0.00 0.00 97 1009.8
20260509060557 13 131 0.0 0.0 0.00 0.00 0.00 97 1010.0
20260509060052 13 131 0.0 0.0 0.00 0.00 0.00 97 1009.8
20260509055548 13 131 0.0 0.0 0.00 0.00 0.00 97 1009.9
20260509055044 13 131 0.0 0.0 0.00 0.00 0.00 97 1010.0
20260509054541 13 131 0.0 0.0 0.00 0.00 0.00 97 1009.9
20260509054039 14 131 0.0 0.0 0.00 0.00 0.00 97 1009.7
20260509053537 14 131 0.0 0.0 0.00 0.00 0.00 97 1009.9
20260509053034 14 131 0.0 0.0 0.00 0.00 0.00 97 1010.0
20260509052532 14 130 0.0 0.0 0.00 0.00 0.00 97 1010.0
20260509052030 14 130 0.0 0.0 0.00 0.00 0.00 96 1010.0
20260509051527 15 130 0.0 0.0 0.00 0.00 0.00 96 1010.2
20260509051024 15 130 0.0 0.0 0.00 0.00 0.00 96 1009.9
20260509050521 15 130 0.0 0.0 0.00 0.00 0.00 96 1010.1
20260509050017 15 130 0.0 0.0 0.00 0.00 0.00 96 1010.2
20260509045515 15 130 0.0 0.0 0.00 0.00 0.00 96 1010.2